CAPE
59 83 77 140 261 236 118 36 52 90 147 245 253 171 30 0 0 0 0 0 0 0 0 0 0 0 0 0 0 0 0 0 0 0 106 405 365 470 84 31 14 32 60
79 72 77 99 119 100 61 65 124 210 314 309 174 78 20 0 0 0 0 0 0 0 0 0 0 0 0 0 0 0 0 0 0 0 57 136 337 214 89 35 108 182 231
63 99 120 118 138 114 147 192 273 367 350 191 95 21 0 0 0 0 0 0 0 0 0 0 0 0 0 0 0 0 0 0 0 0 9 203 265 183 167 184 48 113 331
74 83 187 176 172 196 310 373 453 455 268 88 56 0 0 0 0 0 0 0 0 0 0 0 0 0 0 0 0 0 0 0 0 0 0 70 165 318 41 32 95 27 157
117 145 291 208 191 253 266 341 452 349 183 90 15 0 0 0 0 0 0 0 0 0 0 0 0 0 0 0 0 0 0 0 0 1 0 0 0 379 161 16 0 0 22
379 284 226 183 162 269 310 427 355 235 174 77 0 0 0 0 0 0 0 0 0 0 0 0 0 0 0 0 0 0 0 0 0 0 0 0 2 129 225 193 0 0 0
193 115 169 177 258 316 394 439 287 230 147 16 0 0 0 0 0 0 0 0 0 0 0 0 0 0 0 0 0 0 0 0 0 0 0 0 0 0 0 60 0 0 0
68 87 129 134 322 388 448 390 285 173 72 0 0 0 0 0 0 0 0 0 0 0 0 0 0 0 0 0 0 0 0 0 0 1 0 0 0 0 0 0 0 0 0
132 192 0 245 433 490 455 323 182 61 11 0 0 0 0 0 0 0 0 0 0 0 0 0 0 0 0 0 0 0 0 0 0 5 6 0 0 0 0 0 0 0 0
2 39 205 203 601 529 379 160 40 20 7 0 0 0 0 0 0 0 2 0 0 0 0 0 0 0 0 0 0 0 0 0 0 0 0 0 0 0 2 0 0 0 4
25 179 467 680 630 535 352 128 18 0 0 0 0 0 0 14 29 26 0 0 0 0 0 0 0 0 0 1 0 0 0 0 0 0 0 0 0 12 99 73 16 28 106
107 392 503 540 620 588 286 165 23 1 23 147 82 37 280 178 30 0 22 0 0 9 0 1 0 3 1 0 3 0 0 0 0 0 0 0 0 4 42 59 29 0 5
495 588 691 654 656 377 262 228 31 154 307 390 403 505 360 371 364 248 313 139 131 115 110 39 36 68 14 5 0 0 0 0 0 0 0 0 0 0 0 0 0 0 0
810 722 703 607 637 172 190 155 240 386 626 645 745 625 741 712 593 342 214 135 107 50 34 15 3 0 0 0 0 0 0 0 0 0 0 0 0 0 0 0 0 0 0
589 600 644 803 376 131 167 527 541 470 327 382 391 344 294 302 230 87 6 0 16 0 0 0 0 0 0 0 0 0 0 0 0 0 0 0 0 0 0 0 0 0 0
428 410 475 475 342 326 616 451 202 15 0 8 100 170 235 372 214 0 10 0 0 0 0 0 0 0 0 0 0 0 0 0 0 0 0 0 0 0 0 0 0 0 0
392 454 432 380 292 439 561 259 11 0 0 0 0 4 20 61 3 0 0 0 0 0 0 0 0 0 0 0 0 0 0 0 0 0 0 0 4 4 0 0 0 0 0
442 460 500 394 301 632 319 24 7 6 0 0 0 0 0 0 0 0 0 0 0 0 0 0 0 0 0 0 0 0 0 0 0 0 0 0 2 3 0 0 0 0 0
861 729 544 540 577 434 162 47 123 53 12 0 0 0 0 0 0 0 0 0 0 0 0 0 0 0 0 0 0 0 0 0 0 0 0 0 0 4 3 0 0 0 0
1132 1141 783 767 680 358 204 88 305 131 4 0 0 0 0 0 0 0 0 0 0 0 0 0 0 0 0 0 0 0 0 0 0 0 0 0 23 2 0 0 0 0 0
1161 1249 914 743 463 420 308 318 201 1 0 0 0 0 0 0 0 0 0 0 0 0 0 0 0 0 0 0 0 0 0 0 0 0 0 0 0 0 0 0 0 0 0
1210 1317 925 719 468 568 628 196 0 0 0 0 0 0 0 0 0 0 0 0 0 0 0 0 0 0 0 0 0 0 0 0 0 0 0 0 0 0 0 0 0 0 0
1119 1087 671 594 572 786 221 0 1 0 0 0 0 0 0 0 0 0 0 0 0 0 0 0 0 0 0 0 0 0 0 0 0 0 0 0 0 0 0 0 0 0 0
845 794 886 779 524 15 0 0 0 0 0 0 0 0 0 0 0 0 0 0 0 0 0 0 0 0 0 0 0 0 0 0 0 0 0 0 0 0 0 0 0 0 0
949 767 262 0 0 0 0 0 0 0 0 0 0 0 0 0 0 0 0 0 0 0 0 0 0 0 0 0 0 0 0 0 0 0 0 0 0 0 0 1 0 0 0
80 0 0 0 0 0 0 0 0 0 0 0 0 0 0 0 0 0 0 0 0 0 0 0 0 0 0 0 0 0 0 0 0 0 0 0 0 0 0 0 0 0 0
CIN
-243 -201 -171 -110 -46 -51 -106 -159 -154 -129 -106 -64 -64 -83 -145 -0 -0 -0 -0 -0 -0 -0 -0 -0 -0 -0 -0 -0 -0 -0 -0 -0 -0 -0 -47 -9 -7 -20 -58 -82 -134 -100 -106
-218 -227 -191 -143 -111 -117 -140 -140 -106 -76 -39 -40 -74 -128 -164 -0 -0 -0 -0 -0 -0 -0 -0 -0 -0 -0 -0 -0 -0 -0 -0 -0 -0 -0 -47 -11 -14 -44 -52 -73 -53 -53 -56
-210 -203 -93 -147 -110 -93 -80 -66 -51 -29 -26 -73 -130 -148 -0 -0 -0 -0 -0 -0 -0 -0 -0 -0 -0 -0 -0 -0 -0 -0 -0 -0 -0 -0 -64 -11 -38 -43 -39 -30 -59 -48 -28
-158 -176 -85 -110 -84 -75 -31 -16 -7 -9 -45 -134 -172 -0 -0 -0 -0 -0 -0 -0 -0 -0 -0 -0 -0 -0 -0 -0 -0 -0 -0 -0 -0 -0 -0 -16 -14 -14 -61 -73 -31 -92 -38
-84 -62 -59 -63 -54 -48 -68 -21 -13 -36 -87 -148 -102 -0 -0 -0 -0 -0 -0 -0 -0 -0 -0 -0 -0 -0 -0 -0 -0 -0 -0 -0 -0 -6 -0 -0 -0 -3 -8 -47 -0 -0 -65
-2 -34 -64 -46 -41 -28 -25 -21 -46 -95 -107 -180 -0 -0 -0 -0 -0 -0 -0 -0 -0 -0 -0 -0 -0 -0 -0 -0 -0 -0 -0 -0 -0 -0 -0 -0 -4 -23 -3 -7 -0 -0 -0
-52 -35 -16 -11 -30 -44 -31 -40 -77 -101 -155 -134 -0 -0 -0 -0 -0 -0 -0 -0 -0 -0 -0 -0 -0 -0 -0 -0 -0 -0 -0 -0 -0 -4 -0 -0 -0 -0 -0 -24 -0 -0 -0
-83 -26 -34 -18 -7 -20 -45 -43 -46 -115 -186 -0 -0 -0 -0 -0 -0 -0 -0 -0 -0 -0 -0 -0 -0 -0 -0 -0 -0 -0 -0 -0 -0 -4 -0 -0 -0 -0 -0 -0 -0 -0 -0
-3 -5 -134 -9 -5 -14 -17 -52 -103 -179 -278 -191 -0 -0 -0 -0 -0 -0 -0 -0 -0 -0 -0 -0 -0 -0 -0 -0 -0 -0 -0 -0 -0 -23 -67 -0 -0 -0 -0 -0 -0 -0 -0
-18 -1 -0 -4 -11 -19 -57 -105 -177 -251 -369 -0 -0 -0 -0 -0 -0 -0 -31 -0 -0 -0 -0 -0 -0 -0 -0 -0 -0 -0 -0 -0 -0 -0 -0 -0 -0 -0 -1 -0 -0 -0 -0
-57 -6 -5 -2 -10 -28 -50 -104 -249 -0 -0 -0 -0 -0 -0 -54 -118 -130 -0 -0 -0 -0 -0 -0 -0 -0 -0 -7 -0 -0 -0 -0 -0 -0 -0 -0 -0 -15 -29 -23 -6 -21 -18
-37 -9 -17 -12 -12 -14 -26 -86 -255 -213 -205 -74 -111 -134 -40 -42 -63 -0 -83 -0 -0 -85 -0 -44 -0 -10 -9 -2 -9 -0 -0 -0 -0 -0 -0 -0 -0 -5 -12 -19 -7 -0 -14
-31 -32 -34 -5 -6 -12 -23 -37 -122 -38 -8 -9 -11 -6 -14 -12 -24 -9 -8 -33 -31 -19 -7 -22 -9 -11 -6 -2 -0 -0 -0 -0 -0 -0 -0 -0 -0 -0 -0 -0 -0 -0 -0
-1 -4 -3 -15 -3 -35 -30 -41 -37 -8 -11 -5 -21 -24 -6 -7 -5 -17 -29 -30 -18 -20 -23 -19 -9 -0 -0 -0 -0 -0 -0 -0 -0 -0 -0 -0 -0 -0 -0 -0 -0 -0 -0
-39 -38 -30 -18 -36 -75 -54 -18 -30 -35 -55 -69 -94 -98 -71 -29 -31 -55 -93 -0 -36 -0 -31 -0 -0 -0 -0 -0 -0 -0 -0 -0 -0 -0 -0 -0 -0 -0 -0 -0 -0 -0 -0
-8 -44 -41 -20 -55 -54 -21 -59 -85 -46 -57 -220 -143 -97 -59 -32 -40 -0 -58 -0 -0 -0 -0 -0 -0 -0 -0 -0 -0 -0 -0 -0 -0 -0 -0 -0 -0 -0 -0 -0 -0 -0 -0
-28 -53 -51 -76 -82 -54 -56 -107 -202 -0 -0 -0 -0 -11 -161 -115 -45 -0 -0 -0 -0 -0 -0 -0 -0 -0 -0 -0 -0 -0 -0 -0 -0 -0 -0 -0 -65 -103 -0 -0 -0 -0 -0
-27 -53 -37 -68 -72 -27 -109 -170 -234 -195 -0 -0 -0 -0 -0 -0 -0 -0 -0 -0 -0 -0 -0 -0 -0 -0 -0 -0 -0 -0 -0 -0 -0 -0 -0 -0 -20 -48 -0 -0 -0 -0 -0
-15 -35 -40 -26 -14 -73 -137 -187 -136 -117 -118 -0 -0 -0 -0 -0 -0 -0 -0 -0 -0 -0 -0 -0 -0 -0 -0 -0 -0 -0 -0 -0 -0 -0 -0 -0 -0 -28 -21 -0 -0 -0 -0
-14 -22 -39 -12 -21 -90 -118 -121 -24 -32 -20 -0 -0 -0 -0 -0 -0 -0 -0 -0 -0 -0 -0 -0 -0 -0 -0 -0 -0 -0 -0 -0 -0 -0 -0 -0 -15 -42 -0 -0 -0 -0 -0
-15 -26 -59 -51 -103 -73 -67 -19 -8 -7 -0 -0 -0 -0 -0 -0 -0 -0 -0 -0 -0 -0 -0 -0 -0 -0 -0 -0 -0 -0 -0 -0 -0 -0 -0 -0 -0 -0 -0 -0 -0 -0 -0
-7 -36 -62 -66 -86 -33 -4 -21 -0 -0 -0 -0 -0 -0 -0 -0 -0 -0 -0 -0 -0 -0 -0 -0 -0 -0 -0 -0 -0 -0 -0 -0 -0 -0 -0 -0 -0 -0 -0 -0 -0 -0 -0
-36 -58 -99 -69 -39 -11 -19 -0 -5 -0 -0 -0 -0 -0 -0 -0 -0 -0 -0 -0 -0 -0 -0 -0 -0 -0 -0 -0 -0 -0 -0 -0 -0 -0 -0 -0 -0 -0 -0 -0 -0 -0 -0
-47 -42 -17 -18 -15 -12 -0 -0 -0 -0 -0 -0 -0 -0 -0 -0 -0 -0 -0 -0 -0 -0 -0 -0 -0 -0 -0 -0 -0 -0 -0 -0 -0 -0 -0 -0 -0 -0 -0 -0 -0 -0 -0
-16 -15 -75 -0 -0 -0 -0 -0 -0 -0 -0 -0 -0 -0 -0 -0 -0 -0 -0 -0 -0 -0 -0 -0 -0 -0 -0 -0 -0 -0 -0 -0 -0 -0 -0 -0 -0 -0 -0 -17 -0 -0 -0
-169 -0 -0 -0 -0 -0 -0 -0 -0 -0 -0 -0 -0 -0 -0 -0 -0 -0 -0 -0 -0 -0 -0 -0 -0 -0 -0 -0 -0 -0 -0 -0 -0 -0 -0 -0 -0 -0 -0 -0 -0 -0 -0
Wind_Speed
7 9 9 9 9 11 12 14 14 15 17 17 18 18 17 13 13 15 16 18 20 22 24 25 26 26 27 27 27 27 27 26 24 22 21 21 22 24 24 25 25 25 25
9 10 9 8 9 10 11 13 13 14 15 16 17 16 14 12 13 14 16 19 21 23 24 25 26 27 27 28 28 28 27 26 25 23 21 21 24 26 25 25 25 24 25
10 11 8 9 8 9 10 11 12 13 14 16 16 15 12 11 12 14 17 18 21 23 24 25 26 28 29 29 29 28 26 25 25 23 22 17 25 27 26 25 25 25 23
9 11 9 9 8 8 9 10 11 12 14 15 15 13 10 11 12 15 17 19 21 23 24 25 27 28 29 30 30 29 27 26 25 23 24 25 26 27 26 26 26 25 24
11 9 10 8 7 6 9 9 10 12 13 14 14 12 10 11 13 16 18 20 22 23 24 25 26 27 29 30 30 31 28 27 27 23 24 25 27 27 27 27 26 26 25
9 8 9 8 7 4 8 8 10 11 12 13 12 11 10 12 14 16 18 20 21 23 24 25 26 27 28 30 31 31 28 28 29 26 24 25 27 27 27 26 26 26 25
4 8 6 5 5 7 6 8 10 11 13 13 12 11 11 13 15 16 18 20 22 23 24 25 25 27 28 29 31 31 30 30 31 26 24 24 26 27 27 27 26 26 26
9 9 4 3 2 6 7 10 10 13 12 11 11 12 13 14 15 17 19 20 21 22 23 24 24 25 27 28 30 31 30 31 31 30 23 24 26 27 27 27 26 26 26
3 5 7 6 4 7 10 11 15 13 12 12 12 11 14 16 17 17 18 20 21 21 22 23 24 25 26 27 28 31 29 30 30 28 24 25 26 27 26 26 26 26 26
8 6 9 17 15 13 15 21 17 14 13 13 14 15 15 16 15 17 17 18 19 21 22 23 23 25 25 24 25 27 30 30 29 25 26 25 26 28 26 26 26 26 26
12 18 19 20 21 24 22 19 14 15 16 15 14 13 14 13 14 15 16 17 17 19 20 21 22 24 24 28 20 24 29 30 31 25 25 25 27 29 27 27 26 26 27
16 23 22 26 26 25 20 17 16 15 14 13 13 14 13 14 15 14 15 15 16 16 18 18 18 21 23 29 28 26 29 30 31 27 26 26 27 27 27 27 27 27 27
20 24 23 24 22 18 17 18 17 16 15 14 13 15 14 13 14 14 15 14 14 17 23 18 22 21 30 27 28 27 29 30 31 29 27 26 25 25 25 26 27 27 27
21 20 20 20 18 17 19 17 16 15 15 15 16 17 17 15 16 17 20 22 24 23 23 26 26 27 32 34 31 31 30 31 31 30 25 26 27 25 25 25 27 28 28
17 17 18 19 14 17 16 14 16 16 17 17 15 15 18 19 17 14 19 24 25 26 25 27 29 30 31 31 33 31 32 32 31 30 27 26 26 27 25 25 26 27 29
18 20 20 18 17 16 15 16 15 15 15 19 17 17 15 14 15 16 19 20 21 24 24 27 29 31 31 34 35 35 34 34 34 33 29 27 27 25 24 25 26 28 30
17 19 19 17 17 14 14 14 14 14 16 16 15 17 17 17 17 17 17 18 20 22 24 28 31 32 33 34 37 37 37 34 35 35 33 32 25 23 22 23 27 31 31
16 15 14 14 13 13 12 12 11 13 17 17 16 17 18 18 16 16 17 20 23 23 25 27 29 32 34 37 37 38 34 34 37 39 33 32 27 22 23 26 30 34 32
15 14 12 12 11 10 10 9 11 14 14 16 15 15 16 18 18 18 20 22 23 24 26 28 30 33 35 36 36 34 33 36 35 36 36 34 32 24 26 30 34 36 34
12 12 10 8 8 9 9 8 11 12 14 14 15 17 18 18 20 21 19 20 22 25 28 30 31 31 32 34 35 35 32 31 35 35 36 27 29 23 27 30 34 34 37
10 9 7 8 7 8 7 7 10 11 12 15 16 17 18 19 20 21 24 26 27 28 30 32 32 33 33 34 36 35 36 35 33 33 33 35 35 35 34 29 32 34 37
6 7 7 7 6 7 7 9 9 10 12 13 15 16 18 20 22 23 25 26 28 30 31 32 34 34 31 33 36 38 40 38 33 36 36 35 36 36 35 37 36 37 36
5 5 6 6 7 8 8 10 12 13 13 12 12 12 17 20 22 24 25 27 28 29 30 32 32 31 32 33 33 35 42 42 44 38 39 39 39 38 37 37 38 36 36
3 4 7 9 8 10 9 9 9 11 12 15 16 18 20 22 24 27 30 31 32 31 31 31 30 31 33 35 33 32 35 39 46 51 38 39 39 39 38 37 35 34 36
6 6 7 7 8 9 11 11 11 13 13 15 19 22 25 27 27 28 30 32 32 31 31 30 30 29 29 32 35 37 38 38 37 42 49 43 40 37 37 33 35 36 35
6 5 5 6 7 9 11 13 13 14 15 18 20 22 26 26 26 29 31 32 31 31 31 29 29 30 32 33 34 33 36 38 39 40 41 41 40 37 34 33 33 32 33
Wind_Direction
96 116 108 95 85 81 76 69 60 53 47 44 40 32 24 13 10 15 17 21 22 24 25 25 24 23 22 19 17 16 14 11 17 17 19 16 13 8 1 354 348 358 358
102 117 118 103 94 86 75 67 55 46 42 38 35 26 12 9 11 15 20 22 23 24 24 26 25 21 20 21 19 12 10 10 7 18 24 20 14 5 359 354 355 359 358
108 119 117 108 103 88 71 61 52 43 42 39 31 21 8 7 11 14 18 18 20 24 26 26 26 24 22 20 16 6 1 350 346 324 25 49 11 3 0 0 359 356 2
112 124 122 118 110 93 69 57 47 44 41 39 26 17 4 6 12 13 16 20 24 27 29 29 26 26 23 20 19 11 357 345 329 330 12 10 5 1 357 356 356 354 355
122 122 125 123 112 99 76 50 41 37 34 31 25 15 6 4 10 13 18 24 28 32 32 30 28 23 21 19 13 6 352 342 336 13 17 5 356 1 360 358 356 353 348
109 119 132 125 113 92 63 47 39 30 26 26 24 12 7 9 8 14 21 26 29 30 30 29 25 21 18 15 10 5 347 340 342 15 18 10 5 359 359 1 359 355 351
88 106 123 115 112 79 67 46 36 35 30 27 26 19 16 15 17 23 26 26 26 28 31 29 24 19 13 13 7 359 349 351 354 18 17 15 9 2 358 358 359 357 352
104 117 99 215 114 67 51 50 34 39 26 22 23 25 25 24 24 27 29 28 29 28 23 19 21 17 10 8 6 360 356 355 355 357 24 14 8 3 359 357 356 355 352
120 118 93 217 78 61 57 52 56 38 30 29 27 21 34 41 40 35 31 28 22 19 17 12 9 9 7 4 2 358 2 359 359 4 13 8 3 0 356 355 352 350 350
261 98 112 91 75 63 62 82 68 46 36 35 47 60 59 50 45 41 33 21 16 9 6 3 2 359 2 5 3 4 355 359 360 10 7 5 2 357 352 350 348 345 343
185 206 94 90 86 95 93 80 56 58 64 55 52 55 59 58 44 41 27 18 15 8 5 6 3 360 1 355 4 3 354 353 350 1 1 0 357 352 350 347 344 341 339
86 95 84 102 106 106 92 77 72 68 62 66 61 65 62 28 24 22 21 23 20 18 9 8 12 3 4 354 353 356 349 347 346 355 353 352 353 353 348 344 343 342 338
82 92 95 106 104 84 76 94 82 70 56 46 39 15 25 38 32 23 14 22 22 8 358 9 6 5 342 354 353 353 347 345 343 345 346 347 350 350 348 342 340 339 337
88 86 87 96 83 79 95 78 65 41 40 41 12 357 10 24 23 17 0 359 354 360 351 355 354 354 339 336 342 340 338 339 339 340 343 343 342 341 340 339 337 335 334
78 82 90 99 69 86 71 57 58 55 52 50 26 14 346 0 3 18 352 341 341 339 337 343 340 341 341 340 338 340 338 336 336 335 336 336 335 333 333 335 334 333 332
89 99 105 100 91 88 73 71 65 68 54 8 37 6 13 20 8 3 360 358 357 351 348 343 338 338 339 336 336 335 334 332 332 332 331 331 330 331 332 332 334 332 330
89 97 103 91 99 82 77 72 60 45 20 20 26 15 5 5 6 10 11 10 7 358 352 345 338 337 336 333 330 331 330 330 330 327 327 326 325 325 329 332 330 329 326
93 89 85 86 94 85 63 64 41 28 15 18 22 24 30 29 32 32 27 17 3 358 352 347 344 339 335 333 330 328 329 330 326 324 325 325 331 323 324 325 325 324 322
99 95 88 89 89 67 53 38 24 20 29 29 37 46 44 37 33 26 18 9 1 355 351 349 343 340 337 334 333 332 332 330 330 328 324 324 321 321 320 318 322 321 319
98 96 85 79 70 39 31 37 20 25 23 42 49 39 36 35 25 14 15 7 360 353 349 347 343 340 337 335 333 331 331 333 329 328 328 326 328 330 326 320 317 319 319
83 76 51 67 51 40 41 38 22 30 44 39 31 29 26 20 13 7 359 354 353 348 345 342 340 338 336 335 333 331 329 328 330 328 331 328 326 322 319 325 325 320 317
55 67 48 53 60 76 65 42 52 50 34 34 29 26 18 7 4 1 356 352 349 344 341 341 340 337 336 337 333 330 327 326 327 327 326 325 323 323 322 319 318 318 318
49 54 33 65 100 99 67 48 26 25 23 19 20 22 8 2 1 358 354 350 346 345 342 340 340 339 336 337 335 332 326 324 324 327 324 322 320 319 319 320 317 316 314
38 53 102 110 87 51 49 44 38 18 16 13 11 2 359 356 354 352 350 348 346 345 342 341 341 340 337 334 335 334 331 329 323 320 325 324 322 322 321 320 320 320 318
89 87 70 50 42 39 13 24 19 15 16 8 359 353 352 347 347 349 349 347 344 343 341 340 339 339 339 337 336 333 331 329 328 324 320 323 324 323 322 324 324 321 321
81 56 49 52 43 34 18 11 10 4 360 354 348 346 343 343 345 343 344 344 345 344 342 341 343 343 340 338 335 334 332 330 329 328 324 324 323 324 324 325 326 325 323